Torna al catalogo

DELTA 4 R/B

AttivoGEO
NORAD 40102·ROCKET BODY·🇺🇸 United States

Lanciato Jul 28, 2014 da Cape Canaveral Space Force Station

Loading…

TLE

AggiornatoSource: Space-Track

Epoca: Sep 14, 2026, 14:59 UTC

1 40102U 14043D   26257.62490666 -.00000076  00000-0  00000-0 0  9994
2 40102   9.4073  56.4112 0008351 305.5106  54.5099  0.98914240 26926

Traccia DELTA 4 R/B in tempo reale con AllMySat

Download on the App Store